Regional Weather Roundup
Issued by NWS State College, PA

Home | Current Version | Previous Version | Graphics & Text | Print | Product List | Glossary Off
Versions: 1 2 3 4 5 6 7 8 9 10 11 12 13 14 15 16 17 18 19 20 21 22 23 24 25 26 27 28 29 30 31 32 33 34 35 36 37 38 39 40 41 42 43 44 45 46 47 48 49 50

681
ASUS41 KCTP 262203
RWRCTP

REGIONAL WEATHER ROUNDUP
NATIONAL WEATHER SERVICE STATE COLLEGE PA
600 PM EDT THU APR 26 2018

Note: "fair" indicates few or no clouds below 12,000 feet with no
significant weather and/or obstructions to visibility.

* = STATION THAT DOES NOT REPORT PRECIPITATION /E.G. RAIN...SNOW...ETC/
    THUNDER OR FOG.

PAZ002>004-007>009-013>016-020>023-029>032-262300-
WESTERN PENNSYLVANIA

CITY           SKY/WX    TMP DP  RH WIND       PRES   REMARKS
ERIE           FAIR      49  31  49 W6        29.90F
MEADVILLE      FAIR      56  36  47 CALM      29.86F
FRANKLIN*      FAIR      57  33  40 CALM      29.86F
NEW CASTLE     FAIR      61  36  39 VRB3      29.87S
BEAVER COUNTY  SUNNY     59  36  41 N3        29.86S
BUTLER*        FAIR      59  36  42 W6        29.87R
PITTSBURGH INT PTSUNNY   60  32  34 CALM      29.85S
PITTSBURGH     FAIR      60  37  42 W8        29.85S
INDIANA*       SUNNY     61  36  39 VRB5      29.90R
LATROBE        SUNNY     59  36  41 W6        29.88S
WASHINGTON CO* FAIR      61  36  39 SW5       29.89S
$$

PAZ004>006-010>012-017>019-024>028-033>037-041-042-045-046-049>053-262300-
CENTRAL PENNSYLVANIA

CITY           SKY/WX    TMP DP  RH WIND       PRES   REMARKS
BRADFORD       FAIR      57  31  37 NW8       29.85R
DUBOIS         FAIR      58  34  40 W3        29.84R
CLEARFIELD     FAIR      62  34  35 W10       29.84S
JOHNSTOWN      FAIR      55  34  45 N6        29.86R
ALTOONA        FAIR      63  35  35 NW3       29.85S
STATE COLLEGE  SUNNY     63  36  36 W10       29.83S
WILLIAMSPORT   FAIR      66  37  34 SW12      29.80R
SELINSGROVE    FAIR      64  41  42 NW6       29.83S
FT INDIANTOWN  FAIR      65  39  38 W9        29.83R
CAPITAL CITY   FAIR      67  39  35 SW6       29.83R
HARRISBURG     FAIR      66  40  38 W7        29.82R
YORK           FAIR      66  40  38 W5        29.83R
$$

PAZ038>040-043-044-047-048-054-055-060>062-067>071-262300-
EASTERN PENNSYLVANIA

CITY           SKY/WX    TMP DP  RH WIND       PRES   REMARKS
SCRANTON       FAIR      64  41  42 N12       29.80R
MOUNT POCONO   FAIR      57  39  51 NW10      29.81R
ALLENTOWN      FAIR      66  42  41 W9        29.80S
QUAKERTOWN*    CLEAR     64  43  45 W9        29.82R
READING        FAIR      65  44  46 W9        29.82R
LANCASTER      FAIR      64  44  48 W6        29.83R
COATESVILLE    FAIR      63  41  45 W10       29.86R
POTTSTOWN      FAIR      63  41  44 W5        29.84R
BLUE BELL      FAIR      63  43  48 W8        29.83R
DOYLESTOWN     FAIR      66  42  41 W7        29.81R
WILLOW GROVE   NOT AVBL
NORTH PHILA    FAIR      67  43  41 W7        29.83R
PHILADELPHIA   FAIR      66  41  40 W14       29.83R
$$




USA.gov is the U.S. government's official web portal to all federal, state and local government web resources and services.